KD5NDU-15 Weather Reports


time (UTC)temp
F
wind
direction
speed
knots
gust
knots
rain 1hr
in
rain 24hr
in
rain mn
in
humidity
%
barometer
mb
20260509033232 58 197 0.0 0.0 0.00 0.00 0.00 92 1009.7
20260509032731 58 198 0.0 0.0 0.00 0.00 0.00 91 1009.6
20260509032231 59 198 0.0 1.7 0.00 0.00 0.00 91 1009.6
20260509031409 59 153 0.9 3.5 0.00 0.00 0.00 91 1009.4
20260509030729 59 198 0.9 2.6 0.00 0.00 0.00 91 1009.3
20260509030229 59 183 0.9 1.7 0.00 0.00 0.00 90 1009.3
20260509025729 59 175 0.9 3.5 0.00 0.00 0.00 90 1009.3
20260509025320 59 174 0.9 2.6 0.00 0.00 0.00 90 1009.4
20260509025231 59 174 0.9 2.6 0.00 0.00 0.00 90 1009.4
20260509024729 59 195 0.9 3.5 0.00 0.00 0.00 91 1009.3
20260509024229 59 172 0.9 2.6 0.00 0.00 0.00 91 1009.3
20260509023729 59 174 0.9 2.6 0.00 0.00 0.00 90 1009.3
20260509023232 59 184 0.0 3.5 0.00 0.00 0.00 90 1009.3
20260509020229 60 174 0.0 1.7 0.00 0.00 0.00 87 1009.2
20260509013231 61 153 0.9 3.5 0.00 0.00 0.00 86 1009.0
20260509012232 62 186 1.7 4.3 0.00 0.00 0.00 86 1009.0
20260509011743 62 175 0.9 2.6 0.00 0.00 0.00 86 1009.0
20260509011251 62 211 0.9 2.6 0.00 0.00 0.00 85 1009.1
20260509005731 63 192 0.0 0.9 0.00 0.00 0.00 83 1009.3
20260509005231 64 192 0.0 0.9 0.00 0.00 0.00 82 1009.3
20260509004231 64 221 0.9 1.7 0.00 0.00 0.00 81 1009.4
20260509003231 65 174 0.9 2.6 0.00 0.00 0.00 80 1009.2
20260509002729 65 190 1.7 2.6 0.00 0.00 0.00 79 1009.2
20260509002229 66 153 1.7 4.3 0.00 0.00 0.00 79 1008.8
20260509001729 66 172 1.7 3.5 0.00 0.00 0.00 78 1008.9
20260509001229 66 169 1.7 4.3 0.00 0.00 0.00 77 1009.0
20260509000743 66 163 1.7 3.5 0.00 0.00 0.00 77 1009.2
20260509000229 67 155 0.9 4.3 0.00 0.00 0.00 77 1009.2
20260508235731 67 238 0.9 1.7 0.00 0.00 0.00 76 1009.3
20260508235229 67 204 0.9 3.5 0.00 0.00 0.00 75 1009.4
20260508234729 67 137 0.9 3.5 0.00 0.00 0.00 77 1009.5
20260508234243 67 205 0.9 2.6 0.00 0.00 0.00 75 1009.6
20260508233743 67 217 0.9 1.7 0.00 0.00 0.00 75 1009.6
20260508233326 67 160 1.7 4.3 0.00 0.00 0.00 74 1009.7
20260508232733 67 159 1.7 4.3 0.00 0.00 0.00 74 1009.6
20260508232229 68 179 1.7 6.1 0.00 0.00 0.00 72 1009.8
20260508231731 68 200 1.7 5.2 0.00 0.00 0.00 72 1009.7
20260508231229 68 248 1.7 4.3 0.00 0.00 0.00 71 1009.7
20260508230729 69 183 1.7 3.5 0.00 0.00 0.00 71 1009.7
20260508230301 69 226 2.6 5.2 0.00 0.00 0.00 71 1009.7
20260508225731 69 133 2.6 7.8 0.00 0.00 0.00 69 1009.6
20260508225231 70 118 2.6 4.3 0.00 0.00 0.00 70 1009.8
20260508224733 70 124 1.7 7.0 0.00 0.00 0.00 71 1009.7
20260508224229 69 203 1.7 4.3 0.00 0.00 0.00 72 1009.8
20260508223731 68 197 2.6 5.2 0.00 0.00 0.00 74 1009.7
20260508223231 68 152 2.6 6.1 0.00 0.00 0.00 72 1009.7
20260508222729 68 159 2.6 7.0 0.00 0.00 0.00 72 1009.8
20260508222229 68 168 1.7 5.2 0.00 0.00 0.00 74 1009.8
20260508221729 68 253 1.7 1.7 0.00 0.00 0.00 72 1009.6
20260508221237 68 221 2.6 6.1 0.00 0.00 0.00 72 1009.6
20260508220729 68 187 2.6 6.1 0.00 0.00 0.00 72 1009.6
20260508220229 68 147 2.6 4.3 0.00 0.00 0.00 72 1009.7
20260508215731 68 184 2.6 5.2 0.00 0.00 0.00 71 1009.6
20260508215237 68 248 2.6 7.0 0.00 0.00 0.00 72 1009.8
20260508214729 68 155 3.5 7.8 0.00 0.00 0.00 71 1009.9
20260508214243 69 157 2.6 7.8 0.00 0.00 0.00 70 1009.9
20260508213729 69 175 1.7 4.3 0.00 0.00 0.00 71 1009.9
20260508213229 69 261 1.7 3.5 0.00 0.00 0.00 71 1010.0
20260508212733 69 226 2.6 9.6 0.00 0.00 0.00 69 1010.2
20260508212231 69 191 2.6 7.0 0.00 0.00 0.00 70 1010.4
20260508211731 70 240 2.6 7.0 0.00 0.00 0.00 69 1010.5
20260508211229 70 191 2.6 7.8 0.00 0.00 0.00 69 1010.5
20260508210729 70 338 2.6 6.1 0.00 0.00 0.00 69 1010.5
20260508210229 70 180 3.5 7.0 0.00 0.00 0.00 68 1010.4
20260508205729 71 186 3.5 7.8 0.00 0.00 0.00 67 1010.5
20260508205229 72 143 3.5 9.6 0.00 0.00 0.00 69 1010.4
20260508204732 72 187 2.6 7.8 0.00 0.00 0.00 65 1010.4
20260508204237 72 179 2.6 7.0 0.00 0.00 0.00 65 1010.5
20260508203729 72 247 1.7 5.2 0.00 0.00 0.00 66 1010.6
20260508203229 72 260 1.7 5.2 0.00 0.00 0.00 67 1010.6
20260508202729 72 136 2.6 4.3 0.00 0.00 0.00 68 1010.8
20260508202229 71 137 2.6 9.6 0.00 0.00 0.00 68 1010.8
20260508201729 71 221 3.5 7.0 0.00 0.00 0.00 66 1010.9
20260508201229 71 189 2.6 7.0 0.00 0.00 0.00 66 1010.8
20260508200729 71 164 2.6 7.0 0.00 0.00 0.00 64 1010.9
20260508200320 71 233 3.5 5.2 0.00 0.00 0.00 65 1011.0
20260508195729 71 175 4.3 8.7 0.00 0.00 0.00 64 1011.1
20260508195229 71 155 4.3 12.2 0.00 0.00 0.00 65 1011.2
20260508194729 71 75 3.5 9.6 0.00 0.00 0.00 67 1011.0
20260508194229 70 149 3.5 8.7 0.00 0.00 0.00 66 1011.1
20260508193730 70 120 3.5 7.8 0.00 0.00 0.00 68 1011.1
20260508193230 70 188 2.6 3.5 0.00 0.00 0.00 68 1011.1
20260508192730 70 203 2.6 8.7 0.00 0.00 0.00 66 1011.1
20260508192230 71 150 2.6 7.0 0.00 0.00 0.00 64 1011.3
20260508191730 72 226 1.7 4.3 0.00 0.00 0.00 63 1011.3
20260508191230 71 207 1.7 4.3 0.00 0.00 0.00 66 1011.3
20260508190820 70 166 2.6 5.2 0.00 0.00 0.00 65 1011.3